Location: Meanaryar
(48.4161°N, 4.7315°W)
Time: 06:30:26
(UTC+00:00)

CZ-2C R/B - Pass Details

Date: 18 September 2020
Orbit: 785 x 870 km, 98.2° (Epoch: 23 October)

Event Time Altitude Azimuth Distance (km) Brightness Sun altitude
Rises 19:16:55 0° 21° (NNE) 3,413 5.8 -9.5°
Reaches altitude 10° 19:19:32 10° 31° (NNE) 2,485 5.0 -9.9°
Maximum altitude 19:24:30 33° 95° (E) 1,406 3.3 -10.7°
Drops below altitude 10° 19:29:29 10° 158° (SSE) 2,503 4.8 -11.5°
Sets 19:32:06 0° 168° (SSE) 3,441 5.6 -11.9°
